Wind_Speed
50 49 46 41 35 32 27 27 29 29 33 35 37 40 40 44 46 47 46 49 50 52 56 54 54 56 56 55 54 56 59 59 52 50 44 27 44 28 31 49 42 34 45 42 30
49 47 44 37 35 30 26 22 24 26 28 32 35 37 37 40 43 44 45 47 47 49 53 56 56 54 55 55 55 56 57 56 53 48 54 46 22 15 25 46 50 49 50 50 49
51 48 43 36 34 32 24 18 20 23 24 27 31 33 34 36 39 40 42 45 47 49 51 53 55 55 56 55 55 57 57 54 40 53 63 46 35 32 35 35 35 43 52 52 38
52 50 42 34 32 30 22 15 18 21 21 25 29 31 31 34 38 39 40 42 43 48 51 53 54 55 55 55 54 58 57 54 51 56 66 60 40 43 40 32 38 53 53 50 44
50 47 41 32 28 27 19 9 13 17 19 24 25 28 31 33 34 30 34 36 39 43 48 52 54 55 55 54 54 56 55 55 61 64 61 60 60 51 49 50 53 57 56 51 51
48 47 41 32 26 24 15 6 10 15 17 19 24 27 28 28 31 29 27 29 35 41 48 52 55 57 59 59 60 58 56 57 57 66 64 62 60 65 60 43 49 55 54 50 48
48 46 39 33 24 21 17 12 12 13 16 19 23 24 24 27 22 24 24 22 23 27 36 46 53 61 64 65 63 59 48 49 63 66 69 63 61 66 61 60 63 52 56 52 50
46 45 38 31 23 20 18 14 14 14 17 20 21 20 22 19 21 22 23 21 20 20 27 38 46 54 62 60 57 45 50 47 59 58 65 71 65 52 57 63 58 60 49 53 53
44 43 37 33 24 20 18 14 16 16 18 21 20 20 17 18 20 23 21 20 18 16 22 34 41 49 53 56 40 44 53 50 43 54 60 69 65 60 48 50 54 54 59 56 54
41 41 35 33 27 20 17 14 16 18 20 22 22 20 18 19 19 19 18 14 15 15 17 29 38 44 46 44 47 45 45 48 32 27 41 64 64 67 63 52 50 49 63 58 59
39 41 34 32 26 20 17 16 14 22 23 24 24 22 20 18 18 18 16 16 14 12 13 18 37 44 44 39 47 33 39 40 46 31 44 50 55 65 65 64 42 39 50 56 63
36 37 34 32 26 19 18 17 15 20 24 23 25 21 21 21 22 21 19 17 16 10 12 16 27 31 32 35 42 34 33 25 26 44 31 42 47 52 63 59 52 38 42 43 69
35 35 35 32 26 20 19 18 16 17 25 25 26 23 24 24 21 20 16 14 14 16 17 16 15 25 26 28 34 37 30 24 29 33 41 37 34 42 44 48 44 46 43 52 68
33 36 41 36 26 20 18 17 15 17 24 28 28 27 28 27 26 21 19 16 16 17 18 17 19 25 28 29 31 30 36 23 24 30 43 34 31 30 29 42 40 45 43 55 62
36 39 38 39 27 21 17 17 14 16 19 28 25 26 26 22 22 23 23 21 18 18 22 22 20 21 26 28 29 24 25 34 26 21 19 19 27 24 23 25 33 27 28 35 50
35 36 40 38 27 23 17 15 12 16 21 24 29 29 29 29 25 25 23 25 25 22 22 16 16 20 22 22 24 27 20 16 27 19 26 22 27 23 28 23 19 25 29 23 20
37 37 38 38 25 21 16 10 13 19 21 18 22 29 27 29 28 29 28 28 30 29 25 25 19 21 20 22 29 28 25 23 25 28 28 20 24 20 16 19 24 28 22 21 25
43 42 39 34 23 18 15 8 15 16 25 18 17 27 30 30 30 29 29 29 29 26 19 22 23 24 26 26 23 32 21 19 18 15 16 15 25 15 22 24 26 27 16 22 28
47 45 39 27 20 16 15 12 22 18 33 27 22 27 29 31 28 30 31 30 29 27 22 23 17 21 26 26 26 26 34 28 32 23 17 21 27 32 29 30 23 28 29 27 30
51 49 38 19 15 15 15 10 18 21 31 33 29 28 28 29 29 29 34 32 31 27 27 24 18 17 23 31 31 19 19 26 18 23 18 26 32 27 28 27 30 33 31 30 31
54 41 30 17 14 15 12 10 12 16 16 30 26 33 32 25 29 34 31 30 31 29 32 27 24 22 24 27 28 26 26 27 20 21 14 15 29 24 28 26 25 27 27 28 29
54 37 26 17 15 15 14 17 10 24 12 9 28 37 41 39 34 31 22 21 22 26 35 23 34 29 22 15 24 27 25 19 28 29 29 20 19 18 22 22 21 27 28 33 28
45 32 20 14 12 16 14 14 17 14 19 27 20 37 41 45 37 30 29 35 24 34 34 38 32 29 35 25 23 34 30 33 18 35 36 31 32 30 38 21 15 18 34 36 30
34 24 15 10 14 17 17 17 19 20 18 18 24 28 37 43 45 32 40 39 42 38 39 43 34 28 28 26 21 25 29 24 26 33 31 36 25 18 27 29 28 29 32 32 31
28 15 19 16 15 22 27 24 18 27 26 22 23 30 36 43 42 37 32 39 38 36 45 34 36 31 29 26 28 21 27 32 34 36 28 26 32 39 31 33 26 24 24 28 29
23 15 20 19 11 25 26 20 18 24 19 21 26 30 28 34 27 29 28 30 22 24 37 30 39 33 27 28 23 24 20 21 28 39 32 33 23 15 19 29 24 24 27 25 27
19 14 15 21 23 27 20 19 13 22 19 23 23 37 38 32 33 35 30 21 22 19 27 33 36 32 29 21 26 27 20 16 16 15 17 21 23 33 36 27 26 26 28 27 25
Wind_Direction
331 332 331 329 320 313 295 271 256 245 239 232 229 227 225 224 223 223 219 218 217 217 217 218 219 219 217 216 218 216 218 220 222 222 203 215 208 233 227 233 227 212 233 231 221
332 337 334 329 319 320 303 276 256 244 237 226 223 224 220 218 220 217 217 216 215 215 218 218 217 217 219 217 217 220 221 219 220 220 217 204 175 221 233 236 237 233 237 241 239
334 338 337 333 324 325 309 273 246 238 229 220 220 220 214 213 214 212 217 217 216 214 217 217 217 217 218 218 218 218 221 219 214 224 228 210 186 196 208 222 219 224 230 235 240
336 339 340 337 329 329 319 273 240 225 216 215 218 211 210 207 210 210 216 218 219 218 219 219 219 219 220 218 218 222 220 222 211 221 227 227 211 192 198 194 213 221 225 232 238
336 340 340 336 333 335 330 277 221 209 208 218 207 207 204 205 212 211 219 220 222 224 224 224 224 224 224 223 220 222 221 220 221 228 225 229 227 221 224 208 215 228 233 232 231
335 340 341 339 332 335 326 298 231 210 210 203 207 206 206 205 211 208 219 223 224 224 224 225 225 226 226 224 223 225 222 222 214 231 227 228 227 231 235 238 240 233 235 238 242
335 340 339 342 331 327 320 289 236 216 205 208 206 209 205 213 213 209 220 226 235 237 233 226 221 223 221 223 222 220 222 224 222 223 233 229 228 236 238 241 251 240 233 236 240
337 339 339 339 329 323 322 290 231 218 213 208 209 211 211 209 215 213 222 228 237 252 248 235 224 221 219 218 219 213 224 210 228 228 229 232 231 235 240 239 242 252 249 237 238
338 337 336 338 332 321 312 302 230 223 217 210 211 212 206 210 211 218 226 232 241 256 254 234 224 218 213 211 209 212 218 219 233 235 234 233 231 228 241 243 244 242 246 240 234
339 334 338 337 332 316 311 299 244 228 218 209 212 208 196 203 211 221 227 228 234 244 256 232 220 213 202 205 202 210 216 217 228 224 237 240 236 233 235 243 243 244 240 236 226
334 332 335 336 329 311 302 291 269 235 217 210 209 207 205 201 207 209 210 210 227 239 260 250 214 206 202 203 199 202 219 226 231 233 244 255 241 240 240 237 245 256 247 240 227
333 332 336 335 330 309 296 290 275 238 217 215 211 212 204 199 203 208 210 215 214 212 199 229 226 208 212 209 196 219 211 221 229 239 250 258 250 247 242 245 247 262 253 251 229
337 334 333 331 327 305 291 285 274 247 221 214 208 201 205 200 210 208 213 221 217 212 204 203 212 202 188 185 205 220 218 216 232 222 244 252 247 254 257 252 254 258 259 245 237
334 333 330 329 313 299 287 282 275 252 233 210 208 204 201 202 202 199 194 203 219 211 206 191 186 207 191 197 200 210 205 218 232 226 241 247 242 248 258 252 257 255 253 243 242
330 328 327 323 313 292 285 284 274 250 246 208 204 205 205 207 209 200 195 191 197 208 202 177 196 200 198 197 205 200 206 218 211 229 238 239 241 228 230 249 252 238 224 243 238
329 327 322 330 306 288 283 281 267 241 209 211 205 201 201 198 199 197 201 196 185 199 202 188 202 205 215 203 197 191 210 215 204 216 234 208 240 234 240 238 237 253 247 245 265
327 323 321 321 299 281 277 280 253 221 207 217 207 205 204 208 204 199 196 197 194 186 203 189 200 193 204 199 207 197 198 189 214 217 220 226 235 217 248 232 231 237 251 258 254
326 326 323 319 293 272 265 240 242 208 199 206 203 204 204 204 212 202 198 196 199 184 195 173 196 203 210 197 192 187 207 199 200 228 240 225 232 238 242 245 245 251 233 236 247
327 331 328 315 289 260 257 229 235 226 192 194 194 201 203 201 209 206 205 201 199 185 182 189 206 219 216 178 199 209 206 177 217 203 202 200 225 218 234 242 250 260 266 253 251
329 332 324 307 285 252 234 217 228 248 198 199 202 197 187 206 191 225 207 203 199 190 176 187 225 198 214 198 187 200 218 210 217 191 243 174 217 232 248 253 260 260 260 263 263
331 337 314 287 268 252 231 227 237 212 204 214 212 196 183 209 200 223 215 203 200 189 189 184 192 213 204 217 199 216 204 204 216 228 251 214 201 206 226 233 243 260 273 267 262
334 324 308 281 256 244 243 237 221 215 263 223 225 187 181 184 191 224 220 201 209 196 188 231 183 217 206 234 222 208 219 207 214 210 224 235 256 236 186 244 243 266 255 266 265
334 313 306 261 246 230 228 233 244 230 233 231 214 208 190 186 191 193 203 191 191 199 196 212 200 208 219 202 206 216 216 210 219 213 213 217 235 231 248 220 232 229 272 282 273
322 314 285 232 212 219 213 223 251 255 245 209 211 215 209 191 191 194 220 195 194 201 188 204 210 206 215 218 219 212 213 201 224 229 226 216 246 290 258 267 257 252 267 268 283
308 293 257 232 210 225 216 209 229 242 247 221 211 207 207 189 200 214 221 203 206 209 213 214 198 210 212 210 219 211 216 211 222 225 219 210 223 240 241 245 242 251 258 263 272
298 273 258 239 214 206 228 240 219 225 239 225 202 189 183 180 206 223 223 214 214 219 215 211 215 220 221 223 246 241 229 216 227 232 239 227 225 232 229 230 269 270 263 268 272
287 267 236 219 212 208 236 214 223 214 226 216 197 194 185 191 192 203 206 210 219 224 219 213 216 218 211 228 223 223 222 218 220 204 210 206 222 223 240 258 267 271 275 278 283
Height
5733 5724 5715 5705 5697 5690 5685 5683 5684 5687 5691 5696 5701 5707 5713 5719 5726 5734 5743 5748 5756 5766 5771 5779 5788 5795 5802 5809 5817 5823 5828 5834 5846 5853 5865 5858 5865 5867 5876 5878 5881 5891 5883 5887 5885
5725 5717 5708 5698 5690 5683 5678 5676 5677 5680 5684 5689 5695 5700 5706 5713 5720 5729 5733 5742 5749 5757 5765 5773 5780 5787 5794 5802 5809 5813 5821 5830 5840 5844 5844 5850 5851 5864 5868 5874 5879 5886 5882 5878 5868
5720 5711 5701 5693 5686 5679 5672 5670 5671 5675 5679 5684 5690 5694 5700 5707 5715 5722 5729 5736 5743 5751 5758 5765 5772 5779 5786 5795 5802 5808 5814 5824 5835 5835 5834 5842 5843 5845 5853 5865 5875 5875 5871 5871 5879
5715 5706 5697 5688 5681 5675 5669 5666 5668 5671 5675 5680 5686 5690 5696 5703 5710 5718 5724 5731 5738 5744 5751 5758 5766 5772 5778 5786 5796 5800 5809 5817 5822 5824 5827 5836 5840 5838 5840 5860 5861 5861 5864 5872 5876
5710 5701 5692 5685 5677 5672 5668 5665 5667 5670 5674 5677 5682 5687 5693 5701 5706 5714 5719 5725 5732 5738 5745 5751 5758 5766 5773 5781 5788 5791 5802 5808 5813 5809 5819 5827 5835 5837 5840 5844 5847 5852 5859 5866 5867
5705 5698 5690 5683 5677 5671 5669 5668 5668 5670 5671 5675 5680 5685 5691 5698 5701 5709 5714 5719 5724 5730 5735 5740 5750 5759 5765 5771 5778 5787 5793 5798 5806 5805 5811 5818 5825 5828 5840 5844 5847 5850 5855 5864 5866
5702 5694 5687 5680 5675 5671 5668 5667 5668 5668 5670 5674 5678 5683 5689 5692 5699 5705 5708 5712 5716 5721 5725 5730 5737 5742 5753 5761 5770 5776 5783 5789 5791 5799 5801 5812 5818 5822 5835 5838 5840 5843 5849 5856 5860
5699 5691 5684 5677 5673 5669 5666 5665 5666 5667 5669 5672 5676 5681 5685 5691 5695 5700 5704 5707 5711 5713 5716 5719 5724 5731 5739 5753 5759 5768 5773 5779 5788 5794 5797 5799 5812 5822 5826 5828 5833 5838 5847 5850 5854
5695 5687 5681 5675 5670 5668 5664 5663 5664 5665 5667 5670 5674 5679 5684 5689 5692 5695 5699 5702 5704 5707 5709 5710 5714 5721 5731 5741 5752 5760 5764 5773 5784 5788 5790 5793 5804 5812 5814 5818 5824 5832 5835 5841 5846
5691 5683 5677 5673 5669 5665 5662 5660 5661 5662 5664 5667 5671 5677 5681 5684 5688 5691 5694 5697 5700 5702 5704 5704 5707 5713 5722 5731 5741 5752 5761 5768 5776 5784 5785 5784 5796 5800 5806 5808 5816 5820 5825 5828 5833
5686 5679 5673 5668 5663 5661 5659 5658 5658 5659 5660 5663 5667 5671 5676 5680 5685 5689 5691 5694 5698 5699 5700 5702 5703 5705 5717 5729 5743 5752 5759 5768 5775 5780 5779 5778 5784 5788 5795 5799 5809 5809 5816 5819 5824
5682 5675 5670 5665 5659 5656 5655 5652 5653 5654 5658 5660 5663 5668 5673 5677 5682 5685 5688 5692 5693 5694 5696 5701 5703 5710 5721 5731 5739 5749 5758 5764 5773 5771 5768 5770 5780 5779 5785 5791 5801 5803 5804 5810 5811
5679 5672 5666 5660 5655 5652 5650 5649 5648 5649 5653 5656 5660 5665 5671 5675 5680 5683 5686 5689 5693 5695 5697 5701 5708 5712 5717 5728 5740 5744 5751 5761 5768 5771 5763 5769 5775 5776 5781 5785 5789 5794 5798 5799 5803
5674 5667 5661 5654 5650 5646 5644 5644 5643 5645 5647 5652 5656 5661 5665 5670 5676 5680 5683 5688 5691 5695 5699 5703 5707 5713 5720 5727 5736 5743 5751 5759 5760 5763 5762 5767 5770 5772 5774 5778 5784 5787 5789 5792 5795
5670 5662 5655 5648 5645 5641 5640 5639 5638 5640 5642 5649 5654 5658 5663 5670 5674 5677 5681 5685 5690 5695 5698 5702 5707 5711 5718 5725 5734 5739 5750 5752 5755 5758 5760 5762 5763 5771 5769 5770 5778 5781 5782 5784 5783
5664 5657 5649 5643 5638 5637 5635 5634 5635 5637 5641 5643 5647 5653 5658 5663 5669 5674 5680 5684 5688 5694 5698 5703 5710 5715 5717 5725 5730 5738 5739 5746 5751 5755 5754 5759 5761 5765 5763 5772 5772 5775 5776 5779 5780
5656 5648 5642 5636 5632 5630 5631 5630 5632 5632 5639 5641 5647 5651 5658 5661 5666 5670 5675 5680 5684 5689 5696 5701 5709 5714 5717 5723 5727 5733 5738 5739 5747 5748 5749 5756 5758 5760 5761 5763 5766 5770 5774 5776 5777
5649 5641 5635 5628 5624 5624 5625 5626 5626 5632 5636 5637 5642 5648 5654 5659 5664 5669 5673 5678 5684 5689 5696 5700 5706 5711 5713 5719 5725 5730 5732 5737 5743 5748 5750 5753 5752 5756 5753 5753 5756 5760 5769 5774 5774
5641 5633 5626 5619 5618 5619 5620 5620 5622 5625 5630 5634 5638 5644 5650 5656 5663 5665 5671 5676 5682 5688 5697 5701 5705 5710 5712 5718 5724 5728 5727 5737 5738 5740 5744 5752 5750 5747 5749 5751 5756 5760 5761 5765 5766
5633 5625 5616 5613 5612 5614 5615 5617 5619 5620 5626 5630 5632 5642 5650 5653 5660 5661 5667 5674 5680 5687 5693 5699 5707 5705 5710 5715 5719 5724 5730 5732 5732 5736 5734 5743 5745 5748 5750 5751 5751 5753 5756 5757 5760
5621 5615 5607 5608 5608 5609 5611 5613 5615 5619 5625 5627 5629 5634 5648 5653 5659 5660 5666 5672 5677 5685 5691 5693 5698 5703 5707 5708 5716 5721 5722 5725 5731 5737 5734 5734 5735 5739 5743 5745 5748 5747 5748 5751 5755
5613 5605 5600 5601 5604 5605 5608 5609 5612 5614 5619 5622 5626 5630 5636 5642 5654 5657 5663 5670 5675 5682 5688 5691 5691 5698 5703 5708 5711 5717 5721 5725 5728 5730 5729 5730 5733 5737 5732 5736 5740 5744 5743 5745 5748
5602 5596 5595 5595 5599 5602 5605 5607 5610 5611 5615 5618 5620 5627 5631 5639 5647 5653 5661 5663 5671 5676 5684 5686 5689 5692 5695 5701 5702 5708 5714 5719 5718 5723 5727 5731 5732 5733 5733 5735 5736 5736 5734 5734 5739
5593 5591 5588 5590 5594 5597 5600 5602 5608 5610 5610 5613 5617 5622 5627 5635 5641 5646 5648 5658 5660 5670 5671 5677 5683 5686 5692 5696 5700 5704 5709 5715 5714 5718 5723 5729 5727 5724 5725 5727 5731 5730 5730 5729 5725
5583 5583 5580 5580 5589 5591 5593 5595 5600 5602 5607 5609 5612 5616 5622 5630 5636 5640 5645 5654 5658 5663 5670 5676 5682 5683 5686 5690 5692 5697 5702 5707 5707 5710 5716 5720 5724 5721 5723 5723 5720 5723 5726 5725 5724
5572 5572 5571 5575 5577 5584 5589 5589 5592 5598 5602 5605 5610 5613 5614 5622 5635 5639 5643 5648 5653 5659 5664 5670 5674 5678 5684 5686 5687 5693 5695 5698 5701 5703 5708 5714 5716 5713 5711 5712 5716 5717 5719 5719 5717
5561 5563 5564 5569 5573 5579 5584 5588 5589 5593 5598 5602 5607 5609 5618 5624 5628 5635 5640 5645 5650 5654 5657 5662 5668 5675 5679 5682 5683 5688 5689 5693 5696 5699 5702 5706 5709 5709 5707 5710 5711 5710 5709 5709 5709